カタログに戻る

FENGYUN 1C DEB

運用中SSO
NORAD 31542·DEBRIS·🇨🇳 China

打ち上げ May 10, 1999 から Taiyuan Satellite Launch Center

Loading…

次のパス (今後24時間)

TLE

最新Source: Space-Track

元期: Sep 13, 2026, 08:56 UTC

1 31542U 99025BYH 26256.37226291  .00001570  00000-0  69355-3 0  9997
2 31542  98.7093 312.9160 0047683 132.2034 228.3208 14.24069171998475

AllMySatでFENGYUN 1C DEBをリアルタイム追跡

Download on the App Store